[[{"header":{"parameterUnit":"m.s-1","parameterCategory":1,"la1":30.2991,"la2":30.254,"lo1":-89.0895,"lo2":-89.0444,"dy":0.0017,"dx":0.0017,"nx":28,"ny":28,"refTime":"2024-03-02T09:00:00:Z","depth":0,"parameterNumber":2,"parameterNumberName":"U-component_of_WINDS"},"data":[0,0,0,0,0,0,0,0,0,0,0,0,0,0,0,0,0,0,0,0,0,0,0,0,0,0,0,0,0,0,0,0,0,0,0,0,0,0,0,0,0,0,0,0,0,0,0,0,0,0,0,0,0,0,0,0,0,0,0.5801,0.5801,0,0.5773,0.5772,0.5772,0.5731,0.573,0.573,0.5729,0.57,0.57,0.57,0,0,0,0,0,0,0,0,0,0,0,0,0,0.5822,0.5821,0.5801,0.5801,0.58,0.5773,0.5772,0.5772,0.5731,0.573,0.5729,0.5729,0.57,0.57,0.57,0,0,0,0,0,0,0,0,0,0,0,0,0,0.5805,0.5821,0.5801,0.5777,0.5774,0.5773,0.5772,0.5772,0.5731,0.573,0.5729,0.5728,0.57,0.57,0.57,0.5721,0,0,0.57,0.57,0,0,0,0,0,0,0,0,0.5806,0.5804,0.5781,0.5778,0.5775,0.5754,0.5769,0.5755,0.5732,0.5748,0.5729,0.5728,0.5719,0.5717,0.5714,0.5719,0.5718,0.57,0.57,0.57,0.57,0,0,0,0,0,0,0,0.5807,0.5805,0.579,0.578,0.5777,0.5768,0.5764,0.5766,0.574,0.5746,0.5743,0.574,0.5718,0.5715,0.5714,0.5718,0.57,0.57,0.57,0.5699,0.574,0.5741,0,0,0,0,0,0,0.5812,0.5806,0.5791,0.5789,0.5788,0.5768,0.5764,0.5762,0.574,0.5735,0.5741,0.5738,0.5715,0.5714,0.5712,0.5736,0.57,0.5699,0.5699,0.5739,0.574,0.5741,0,0,0,0,0,0,0.5812,0.5811,0.5792,0.5797,0.5794,0.5769,0.5767,0.5762,0.5759,0.5736,0.5731,0.5743,0.5715,0.5713,0.5719,0.5734,0.5699,0.5699,0.5737,0.5739,0.5741,0.5783,0,0,0,0,0,0,0.5813,0.5811,0.5818,0.5797,0.5794,0.5799,0.5768,0.5762,0.5759,0.5755,0.5736,0.5732,0.5714,0.572,0.5719,0.5734,0.5699,0.5736,0.5738,0.574,0.578,0.5786,0.5791,0,0,0,0,0,0.5814,0.5831,0.5819,0.5817,0.5802,0.58,0.5798,0.5776,0.576,0.5768,0.5753,0.5733,0.5733,0.5721,0.572,0.5734,0.5735,0.5737,0.574,0.5778,0.5785,0.5791,0,0,0,0,0,0,0.5854,0.5828,0.5814,0.5824,0.5815,0.5793,0.5801,0.5784,0.5778,0.5775,0.5748,0.5744,0.5755,0.5745,0.5732,0.5754,0.5731,0.5733,0.576,0.5766,0.5772,0.5774,0.5699,0,0,0,0,0,0.5864,0.5864,0.5841,0.5853,0.5849,0.5826,0.5824,0.5808,0.5797,0.5793,0.5778,0.5769,0.5767,0.5766,0.5763,0.5778,0.5775,0.5788,0.5794,0.5798,0.5801,0.581,0.5817,0.575,0.575,0.575,0,0,0.5885,0.587,0.5872,0.5861,0.5851,0.5853,0.5823,0.5825,0.5826,0.5793,0.5799,0.5788,0.5776,0.5788,0.5792,0.578,0.5819,0.5801,0.5805,0.5805,0.5814,0.582,0.5826,0.5752,0.5751,0.5751,0,0,0.5924,0.5912,0.5921,0.5913,0.5899,0.5884,0.5886,0.5867,0.5859,0.5865,0.584,0.5842,0.5838,0.5831,0.5827,0.5865,0.5847,0.5864,0.5893,0.5902,0.5908,0.5912,0.5927,0.5933,0.5867,0.5867,0.5867,0,0.5951,0.5952,0.5928,0.5933,0.5929,0.59,0.5909,0.5902,0.5888,0.5887,0.5873,0.587,0.5859,0.587,0.5879,0.5876,0.5879,0.5866,0.5909,0.5913,0.5917,0.5931,0.5937,0.5869,0.5869,0.5869,0.5869,0,0.5987,0.5988,0.5997,0.5985,0.5982,0.599,0.5968,0.5968,0.5953,0.594,0.5947,0.5933,0.5927,0.5929,0.5913,0.5938,0.5931,0.5913,0.589,0.5926,0.5939,0.5944,0.5873,0.5872,0.5871,0.5871,0,0,0.6049,0.6025,0.6029,0.6024,0.6007,0.6008,0.6015,0.6009,0.601,0.6002,0.6008,0.6006,0.5991,0.5986,0.597,0.5979,0.6012,0.596,0.596,0.5971,0.6039,0.6053,0.606,0.5999,0.6,0.6001,0.6041,0,0.6086,0.6095,0.6075,0.6089,0.6091,0.6064,0.607,0.6061,0.6049,0.6049,0.6036,0.6036,0.6015,0.6012,0.6019,0.6006,0.6025,0.6003,0.6005,0.6006,0.601,0.6066,0.608,0.6118,0.6045,0.6046,0.6047,0,0.6129,0.6124,0.6139,0.6123,0.6123,0.6128,0.6123,0.6123,0.6113,0.6104,0.61,0.6081,0.6087,0.6065,0.6074,0.6059,0.6059,0.6053,0.6054,0.6054,0.6029,0.6069,0.613,0.6136,0.6054,0.6054,0.6053,0,0.6175,0.6171,0.618,0.6176,0.6157,0.6162,0.6155,0.6144,0.6142,0.6138,0.6137,0.6133,0.6131,0.6129,0.6111,0.6095,0.6123,0.6098,0.6116,0.6117,0.6124,0.6124,0.6187,0.6122,0.6122,0.6122,0.6122,0,0.6217,0.6228,0.62,0.6206,0.6218,0.6195,0.6207,0.6197,0.6187,0.6191,0.6167,0.6172,0.6147,0.6149,0.6135,0.6145,0.6144,0.6138,0.6134,0.6141,0.6142,0.6141,0.6138,0.6124,0.6123,0.6123,0.6123,0,0.627,0.6252,0.626,0.6242,0.6238,0.6248,0.6233,0.6238,0.6225,0.6231,0.6231,0.6211,0.6212,0.6193,0.6191,0.6181,0.6199,0.619,0.6203,0.62,0.6221,0.622,0.6286,0.6295,0.6224,0.6224,0.6225,0,0.6299,0.6307,0.629,0.6291,0.6285,0.6287,0.6286,0.6264,0.6264,0.6254,0.6261,0.626,0.6259,0.6262,0.6248,0.6246,0.6238,0.6262,0.6238,0.6245,0.624,0.624,0.6242,0.6267,0.6268,0.6268,0.6269,0,0.6353,0.6344,0.6343,0.634,0.6339,0.6335,0.633,0.6332,0.6309,0.631,0.6311,0.631,0.6308,0.6309,0.6305,0.6298,0.628,0.6277,0.6281,0.6288,0.6296,0.6294,0.6218,0.6275,0.6275,0.6274,0.6274,0.6274,0.6396,0.6402,0.6392,0.6392,0.6386,0.6382,0.6386,0.6375,0.6375,0.6372,0.6359,0.6363,0.6355,0.6348,0.6343,0.6346,0.6335,0.6341,0.6343,0.6345,0.6349,0.6295,0.6345,0.6345,0.6345,0.6345,0.6344,0,0.6449,0.6442,0.6442,0.6436,0.6437,0.642,0.6414,0.6416,0.642,0.6413,0.6412,0.6415,0.6415,0.6402,0.6401,0.6407,0.6399,0.6407,0.6407,0.6406,0.6359,0.6355,0.6414,0.6414,0.6414,0.6414,0.6414,0.6414,0.6477,0.6488,0.6478,0.6486,0.6478,0.6482,0.648,0.6477,0.6471,0.6475,0.6476,0.6467,0.6458,0.6457,0.6457,0.6453,0.6455,0.6467,0.646,0.6416,0.6409,0.6403,0.64,0.6467,0.6467,0.6508,0.6508,0.6508]},{"header":{"parameterUnit":"m.s-1","parameterCategory":1,"la1":30.2991,"la2":30.254,"lo1":-89.0895,"lo2":-89.0444,"dy":0.0017,"dx":0.0017,"nx":28,"ny":28,"refTime":"2024-03-02T09:00:00:Z","depth":0,"parameterNumber":3,"parameterNumberName":"V-component_of_WINDS"},"data":[0,0,0,0,0,0,0,0,0,0,0,0,0,0,0,0,0,0,0,0,0,0,0,0,0,0,0,0,0,0,0,0,0,0,0,0,0,0,0,0,0,0,0,0,0,0,0,0,0,0,0,0,0,0,0,0,0,0,-2.783,-2.783,0,-2.7862,-2.7862,-2.7862,-2.7854,-2.7854,-2.7853,-2.7852,-2.7882,-2.7883,-2.7884,0,0,0,0,0,0,0,0,0,0,0,0,0,-2.7757,-2.7759,-2.783,-2.783,-2.783,-2.7862,-2.7862,-2.7862,-2.7854,-2.7854,-2.7853,-2.7852,-2.7881,-2.7883,-2.7885,0,0,0,0,0,0,0,0,0,0,0,0,0,-2.7789,-2.7759,-2.783,-2.783,-2.7831,-2.7862,-2.7862,-2.7863,-2.7855,-2.7854,-2.7853,-2.7852,-2.7881,-2.7883,-2.7885,-2.7916,0,0,-2.7891,-2.7892,0,0,0,0,0,0,0,0,-2.7787,-2.7791,-2.783,-2.783,-2.7831,-2.7853,-2.7847,-2.788,-2.7855,-2.7845,-2.7852,-2.7851,-2.7873,-2.7875,-2.7883,-2.7917,-2.7919,-2.7891,-2.7892,-2.7893,-2.7894,0,0,0,0,0,0,0,-2.7785,-2.779,-2.7842,-2.783,-2.7831,-2.7827,-2.7831,-2.7853,-2.7864,-2.7846,-2.7846,-2.785,-2.7873,-2.7881,-2.7884,-2.7919,-2.7891,-2.7893,-2.7894,-2.7895,-2.7978,-2.7979,0,0,0,0,0,0,-2.7783,-2.7788,-2.7841,-2.7843,-2.7806,-2.783,-2.7833,-2.7847,-2.7864,-2.7865,-2.785,-2.7849,-2.7878,-2.7882,-2.7885,-2.7922,-2.7893,-2.7895,-2.7896,-2.7977,-2.7979,-2.798,0,0,0,0,0,0,-2.7781,-2.7788,-2.784,-2.7816,-2.7822,-2.7832,-2.7847,-2.7848,-2.7856,-2.7867,-2.7868,-2.7858,-2.7878,-2.7882,-2.7908,-2.7922,-2.7896,-2.7898,-2.7976,-2.7978,-2.7979,-2.7996,0,0,0,0,0,0,-2.7779,-2.7787,-2.78,-2.7816,-2.7823,-2.7864,-2.7848,-2.7849,-2.786,-2.7859,-2.7874,-2.7875,-2.7877,-2.7905,-2.791,-2.7925,-2.79,-2.7975,-2.7977,-2.7979,-2.7994,-2.7997,-2.8001,0,0,0,0,0,-2.7777,-2.7803,-2.7801,-2.7807,-2.784,-2.7865,-2.7869,-2.7872,-2.7862,-2.7874,-2.788,-2.7875,-2.792,-2.7908,-2.7914,-2.7929,-2.7974,-2.7976,-2.7979,-2.7992,-2.7997,-2.8,0,0,0,0,0,0,-2.7788,-2.7805,-2.7803,-2.7835,-2.7849,-2.7863,-2.7879,-2.7876,-2.7892,-2.789,-2.7891,-2.7895,-2.7921,-2.7928,-2.7914,-2.7959,-2.7946,-2.7949,-2.7954,-2.7958,-2.7962,-2.7959,-2.7901,0,0,0,0,0,-2.7794,-2.7814,-2.7828,-2.7855,-2.7862,-2.7869,-2.788,-2.7881,-2.7894,-2.79,-2.7908,-2.792,-2.7937,-2.7948,-2.7964,-2.7995,-2.7997,-2.8008,-2.8011,-2.8014,-2.8017,-2.8032,-2.8037,-2.7987,-2.7987,-2.7987,0,0,-2.7807,-2.7819,-2.7831,-2.7857,-2.7868,-2.7887,-2.7874,-2.7895,-2.7909,-2.7903,-2.7928,-2.7934,-2.7948,-2.7976,-2.7989,-2.7982,-2.8031,-2.8017,-2.8019,-2.802,-2.8035,-2.804,-2.8044,-2.7989,-2.7988,-2.7988,0,0,-2.784,-2.7852,-2.7876,-2.7886,-2.7903,-2.7907,-2.7913,-2.7928,-2.7932,-2.7958,-2.7953,-2.7969,-2.7998,-2.8008,-2.8016,-2.8052,-2.8047,-2.8057,-2.8075,-2.809,-2.8094,-2.8097,-2.8109,-2.8113,-2.806,-2.806,-2.806,0,-2.7854,-2.7884,-2.7888,-2.7909,-2.792,-2.7916,-2.7939,-2.7949,-2.7969,-2.7976,-2.7968,-2.8005,-2.8013,-2.8043,-2.8052,-2.8059,-2.8065,-2.8056,-2.8093,-2.8096,-2.81,-2.8111,-2.8115,-2.8061,-2.8061,-2.8061,-2.8061,0,-2.7899,-2.792,-2.7937,-2.7957,-2.797,-2.7992,-2.7998,-2.801,-2.8009,-2.8014,-2.804,-2.805,-2.8068,-2.8075,-2.8075,-2.8104,-2.81,-2.8093,-2.8079,-2.8105,-2.8116,-2.812,-2.8063,-2.8062,-2.8062,-2.8062,0,0,-2.7941,-2.7963,-2.7969,-2.7977,-2.7995,-2.801,-2.8031,-2.8049,-2.8059,-2.8073,-2.8089,-2.8114,-2.8108,-2.8117,-2.8118,-2.8131,-2.8157,-2.8122,-2.8123,-2.8128,-2.8189,-2.8194,-2.8199,-2.8154,-2.8155,-2.8156,-2.8188,0,-2.7975,-2.8013,-2.8017,-2.805,-2.8069,-2.8065,-2.8083,-2.8094,-2.81,-2.8115,-2.812,-2.8137,-2.8127,-2.8133,-2.8146,-2.8152,-2.817,-2.8149,-2.8169,-2.8169,-2.8165,-2.8205,-2.821,-2.8239,-2.8192,-2.8193,-2.8193,0,-2.802,-2.8036,-2.8072,-2.8085,-2.8093,-2.811,-2.8126,-2.8141,-2.8153,-2.8156,-2.8167,-2.8165,-2.8185,-2.8171,-2.8198,-2.8184,-2.8192,-2.8196,-2.8197,-2.8198,-2.8182,-2.8206,-2.8249,-2.8253,-2.82,-2.8199,-2.8199,0,-2.8045,-2.8075,-2.8101,-2.8108,-2.8125,-2.8136,-2.8144,-2.8156,-2.8166,-2.818,-2.8186,-2.8202,-2.821,-2.8222,-2.8224,-2.8214,-2.825,-2.8237,-2.8252,-2.8252,-2.8259,-2.8259,-2.8303,-2.8266,-2.8266,-2.8266,-2.8266,0,-2.8083,-2.8104,-2.8112,-2.8127,-2.8151,-2.8154,-2.8177,-2.8183,-2.8194,-2.8209,-2.8206,-2.8221,-2.8223,-2.8238,-2.8239,-2.826,-2.8264,-2.8266,-2.8266,-2.8266,-2.8266,-2.8271,-2.8268,-2.8267,-2.8267,-2.8267,-2.8266,0,-2.8115,-2.8121,-2.8148,-2.8162,-2.8165,-2.8182,-2.8193,-2.8207,-2.8212,-2.8231,-2.8236,-2.8243,-2.8259,-2.8263,-2.8283,-2.8284,-2.8308,-2.8307,-2.8305,-2.8304,-2.8319,-2.8317,-2.8367,-2.8373,-2.8333,-2.8333,-2.8334,0,-2.8138,-2.8155,-2.817,-2.8181,-2.8189,-2.8206,-2.8216,-2.8219,-2.823,-2.8245,-2.8257,-2.8274,-2.8287,-2.8314,-2.832,-2.8334,-2.8332,-2.8349,-2.8335,-2.8334,-2.8331,-2.833,-2.8331,-2.8352,-2.8352,-2.8352,-2.8353,0,-2.8178,-2.818,-2.8196,-2.8213,-2.8226,-2.8239,-2.8251,-2.826,-2.8264,-2.8276,-2.8294,-2.8304,-2.8324,-2.834,-2.8355,-2.8361,-2.8357,-2.8357,-2.8361,-2.8361,-2.8359,-2.8359,-2.8311,-2.8356,-2.8356,-2.8355,-2.8355,-2.8355,-2.8205,-2.822,-2.8233,-2.825,-2.826,-2.8271,-2.8285,-2.8291,-2.8306,-2.8323,-2.8324,-2.8343,-2.8353,-2.8373,-2.838,-2.8393,-2.8388,-2.8394,-2.8396,-2.8397,-2.8398,-2.8357,-2.8396,-2.8396,-2.8396,-2.8396,-2.8396,0,-2.8244,-2.8252,-2.8268,-2.8286,-2.8299,-2.8296,-2.8309,-2.832,-2.8337,-2.8348,-2.8361,-2.838,-2.8396,-2.8403,-2.8418,-2.8427,-2.8426,-2.8431,-2.843,-2.8431,-2.8402,-2.8397,-2.8432,-2.8432,-2.8432,-2.8432,-2.8432,-2.8432,-2.8266,-2.8289,-2.8293,-2.8321,-2.8328,-2.8347,-2.8355,-2.8365,-2.8373,-2.8395,-2.8408,-2.8413,-2.8422,-2.8437,-2.8451,-2.8452,-2.8457,-2.8463,-2.8464,-2.8437,-2.8433,-2.843,-2.8424,-2.8465,-2.8465,-2.8491,-2.8491,-2.8492]}]]